Regional Weather Roundup
Issued by NWS

Home | Current Version | Previous Version | Text Only | Print | Product List | Glossary Off
Versions: 1 2 3 4 5 6 7 8 9 10 11 12 13 14 15 16 17 18 19 20 21 22 23 24 25 26 27 28 29 30 31 32 33 34 35 36 37 38 39 40 41 42 43 44 45 46 47 48 49 50

000
ASUS45 KABQ 301701
RWRNM
NEW MEXICO REGIONAL WEATHER ROUNDUP
NATIONAL WEATHER SERVICE ALBUQUERQUE NM
1100 AM MDT TUE AUG 30 2016

NOTE: "FAIR" MEANS FEW OR NO CLOUDS BELOW 12,000 FEET AGL WITH NO
       SIGNIFICANT WEATHER OR OBSTRUCTIONS TO VISION.

      THIS PRODUCT IS RELEASED AS TWO VERSIONS.  ONE VERSION NEAR
      THE TOP OF THE HOUR CONTAINING PRELIMINARY DATA FROM ALBUQUERQUE
      AND OTHER STATIONS.  A FINAL VERSION WITH ADDITIONAL DATA IS
      ISSUED ABOUT 10 MINUTES AFTER THE HOUR.

NMZ501-503-504-510>518-301800-
NORTHWEST PLATEAU/NORTHCENTRAL MOUNTAINS

CITY           SKY/WX    TMP DP  RH WIND       PRES   REMARKS
FARMINGTON     FAIR      72  46  39 E10       30.32S
SANTA FE       PTSUNNY   68  47  46 NE9       30.40S
TAOS           PTSUNNY   64  43  45 NW8       30.44F
ANGEL FIRE     PTSUNNY   52  47  81 CALM      30.52F

$$
NMZ402-403-502-505>509-301800-
WESTCENTRAL MOUNTAINS/SOUTHWEST MOUNTAINS

CITY           SKY/WX    TMP DP  RH WIND       PRES   REMARKS
GALLUP         CLOUDY    71  47  42 N7        30.37S
GRANTS         FAIR      69  49  50 SE15G21   30.42S
SILVER CITY    FAIR      73  53  50 CALM      30.29S

$$
NMZ407-409-411-412-301800-
SOUTHERN DESERTS

CITY           SKY/WX    TMP DP  RH WIND       PRES   REMARKS
DEMING         FAIR      79  56  45 NE13G20   30.23S
LAS CRUCES     FAIR      75  54  48 NE6       30.26R
HOLLOMAN AFB   PTSUNNY   74  56  54 N2        30.22R
ALAMOGORDO     FAIR      73  57  56 W5        30.24S
T OR C         FAIR      75  53  46 NE12      30.27S

$$
NMZ519>523-301800-
CENTRAL VALLEYS/CENTRAL HIGHLANDS

CITY           SKY/WX    TMP DP  RH WIND       PRES   REMARKS
ALBUQUERQUE    FAIR      74  49  41 E12G21    30.35S
DOUBLE EAGLE   MOSUNNY   72  50  46 VRB7      30.39S
MORIARTY ARPT  CLOUDY    67  50  54 E5        30.41S
CLINES CORNERS NOT AVBL
BELEN          FAIR      72  49  43 S5        30.34F
SOCORRO        FAIR      75  52  44 N12       30.31F

$$
NMZ524>526-539-540-301800-
SOUTHCENTRAL MOUNTAINS

CITY           SKY/WX    TMP DP  RH WIND       PRES   REMARKS
RUIDOSO          N/A     59  54  82 SE7       30.42S

$$
NMZ527>531-301800-
NORTHEAST HIGHLANDS/NORTHEAST PLAINS

CITY           SKY/WX    TMP DP  RH WIND       PRES   REMARKS
LAS VEGAS      CLOUDY    62  52  69 NE9       30.45R
RATON          FAIR      68  49  50 E3        30.40S
CLAYTON        LGT RAIN  66  57  72 S3        30.36R

$$
NMZ532>537-301800-
EASTCENTRAL PLAINS

CITY           SKY/WX    TMP DP  RH WIND       PRES   REMARKS
TUCUMCARI      RAIN      67  64  90 E5        30.30S FOG
CANNON AFB     LGT RAIN  66  66 100 E8        30.30S
CLOVIS AIRPORT CLOUDY    66  63  88 NE9       30.30S

$$
NMZ028-029-538-301800-
SOUTHEAST PLAINS

CITY           SKY/WX    TMP DP  RH WIND       PRES   REMARKS
ROSWELL        LGT RAIN  69  65  86 N8        30.25S
ARTESIA        DRIZZLE   70  70 100 N10       30.24R
CARLSBAD       LGT RAIN  67  64  90 N7        30.20S
HOBBS          LGT RAIN  68  68 100 NE5       30.25R


$$




USA.gov is the U.S. government's official web portal to all federal, state and local government web resources and services.